Theta_e
359 361 364 354 334 324 314 317 325 321 323 330 331 327 327 330 326 319 340 345 349 351 355 358 363 360 359 361 360 359 359 360 360 360 359 358 357 358 358 358 359 360 361 359 361 362 360 359 361
362 364 358 346 320 311 313 321 319 323 329 331 329 329 328 326 334 337 340 347 350 350 353 355 363 363 361 359 360 360 360 360 360 360 359 359 358 358 358 358 357 359 359 359 361 361 361 362 361
365 364 349 332 317 310 312 321 323 327 331 328 326 331 330 329 335 338 343 348 348 351 354 358 365 364 361 358 360 361 360 360 360 359 360 360 356 356 355 355 357 361 359 361 362 363 362 362 361
362 355 350 320 316 320 319 321 325 325 327 330 329 325 333 339 337 340 344 345 349 351 356 362 366 363 363 357 359 361 360 360 359 360 358 354 353 353 353 356 359 358 361 361 362 362 359 358 356
352 338 326 319 318 322 323 325 326 324 324 326 329 326 330 338 341 343 344 344 348 352 355 358 365 365 364 358 356 358 360 360 359 358 357 356 353 354 355 358 358 361 361 362 362 360 363 361 360
336 336 319 314 318 322 326 325 325 324 325 327 327 328 330 339 339 340 342 345 347 350 354 357 363 363 364 362 356 356 357 357 357 357 356 352 352 355 354 358 360 361 362 362 362 361 359 358 358
322 321 319 319 320 322 322 326 323 325 324 324 330 325 331 336 341 341 344 344 346 350 353 356 358 361 363 363 359 359 358 358 355 353 353 355 355 355 359 360 361 361 361 362 361 359 358 358 356
332 326 320 319 318 319 324 326 329 326 325 332 332 324 326 335 341 341 343 345 347 350 352 353 356 355 357 357 361 358 359 357 356 356 356 353 353 357 360 361 361 361 360 360 359 358 357 356 355
334 323 318 318 319 321 327 324 329 333 330 331 332 331 334 339 341 340 341 342 345 348 351 354 353 357 361 360 361 362 360 358 358 357 355 358 354 355 357 360 361 361 361 360 358 358 357 357 358
328 321 321 325 326 324 327 325 328 327 328 328 330 333 335 338 338 336 338 337 338 344 348 351 353 352 354 353 360 359 358 359 357 354 354 355 354 353 357 359 360 361 361 360 359 359 359 358 354
328 322 326 327 328 329 326 325 328 326 325 328 327 330 334 336 336 335 337 338 339 341 345 344 353 352 350 355 358 356 355 354 358 362 356 355 358 358 355 356 354 354 358 354 356 354 352 352 354
324 329 329 330 330 329 326 329 326 328 328 332 332 333 334 335 335 335 336 337 340 342 343 346 347 348 350 356 354 355 356 354 354 359 359 358 358 354 359 356 354 357 356 358 356 352 356 354 356
326 328 330 331 330 330 330 327 326 327 331 333 333 334 334 335 337 339 341 342 342 341 344 344 351 361 356 359 358 356 358 354 355 355 358 357 357 358 359 354 354 353 356 357 353 354 356 356 354
329 329 329 331 330 331 327 327 327 328 332 331 332 333 334 335 337 339 339 340 343 345 345 347 350 359 357 362 360 358 354 351 354 356 359 359 363 360 357 358 360 357 363 363 359 357 356 354 353
330 325 328 329 330 329 330 324 323 329 331 329 331 333 334 335 337 338 340 341 343 346 350 350 350 352 357 362 360 359 353 356 357 359 361 364 364 364 365 361 362 359 359 352 359 364 364 354 357
324 323 319 327 331 325 326 319 327 330 330 328 330 332 333 336 337 339 341 343 348 348 353 352 349 351 352 354 359 361 355 356 357 364 362 364 365 364 368 362 360 362 365 362 360 360 353 358 356
323 314 319 322 331 326 327 322 328 330 329 328 330 332 333 335 339 340 341 344 348 352 355 355 355 352 356 362 362 354 357 363 360 362 360 363 364 365 364 361 360 358 359 361 361 361 358 358 352
315 316 321 320 325 329 326 325 328 330 329 329 330 331 333 334 337 341 342 344 350 353 356 358 356 359 356 363 356 358 355 361 361 363 361 364 362 365 365 361 364 367 357 353 358 355 358 360 360
320 318 317 321 325 324 324 324 327 329 330 329 329 331 333 334 339 342 342 344 347 352 355 358 360 365 361 356 353 351 352 357 359 358 360 359 363 358 362 363 356 361 360 358 365 364 361 360 360
317 314 317 321 326 325 321 324 327 329 330 331 331 331 333 335 337 341 342 344 346 350 355 360 362 365 365 361 356 353 358 356 354 358 363 369 365 363 365 366 362 365 363 362 358 362 357 359 356
319 316 317 319 323 325 321 320 324 328 331 332 333 334 335 336 337 339 341 343 346 351 354 358 365 364 365 372 369 367 365 365 362 361 364 365 372 368 365 370 369 369 366 358 363 364 363 356 355
314 320 319 319 320 313 322 309 321 325 326 329 331 332 334 336 338 340 340 341 343 349 352 360 361 367 365 371 369 365 358 352 358 362 362 366 368 369 368 371 368 368 368 358 360 363 363 360 352
317 320 320 316 312 316 317 311 318 324 321 325 329 332 333 334 337 338 339 343 344 349 351 358 362 365 368 366 371 363 364 358 357 362 366 375 373 369 367 371 369 369 367 368 364 361 362 361 354
322 321 316 315 314 309 310 309 314 318 321 324 328 330 333 333 336 340 342 345 345 347 350 355 361 364 364 368 367 370 369 368 363 355 371 363 363 364 368 370 371 371 369 366 361 359 357 358 361
320 315 307 306 305 306 313 308 314 321 324 325 326 329 331 332 334 336 339 342 346 349 348 354 361 362 364 366 365 367 370 371 366 366 364 363 360 355 366 370 368 367 366 359 358 356 358 357 356
317 315 307 301 304 307 315 308 313 322 326 327 329 329 331 331 332 334 338 344 348 349 350 353 360 361 364 362 367 368 370 364 362 366 362 365 366 364 359 368 365 364 362 359 357 351 351 352 357
314 309 317 308 311 307 311 315 320 323 323 325 326 327 328 328 329 332 337 342 349 350 353 355 360 361 363 359 364 368 368 367 363 369 368 362 369 365 371 367 363 364 360 358 355 348 351 354 356
320 323 313 314 304 302 309 311 311 319 321 323 324 326 327 328 331 334 337 340 348 349 353 355 361 360 362 361 361 362 365 368 367 370 366 367 367 368 372 365 367 363 360 357 353 347 352 350 349
318 317 316 315 312 306 305 309 322 324 323 323 326 328 328 329 331 336 340 343 343 350 352 356 358 359 360 360 359 360 361 362 366 365 366 369 369 372 370 369 366 364 358 356 353 351 351 347 347
321 318 318 311 309 312 310 309 321 321 323 326 326 327 331 336 336 337 341 345 347 350 348 352 355 354 358 361 365 363 363 363 360 364 365 369 369 369 367 365 367 364 359 356 351 348 346 345 345
Wind_Speed
8 8 8 4 4 2 15 11 16 20 20 17 23 18 20 20 13 14 12 13 17 16 15 14 11 13 13 15 14 6 10 15 20 22 24 23 22 18 17 15 15 13 12 14 15 16 15 15 13
14 14 3 5 3 9 12 18 13 11 20 20 19 20 22 24 23 21 15 19 19 18 16 14 12 12 16 16 16 12 14 19 21 23 25 23 18 18 18 15 12 12 12 15 15 16 16 14 12
12 14 3 2 8 9 8 15 12 13 16 17 19 20 17 20 21 18 17 25 20 20 17 14 13 13 18 18 20 20 21 20 23 23 24 20 14 15 14 13 13 13 14 14 16 16 16 15 11
11 8 7 10 16 16 10 13 12 13 17 19 17 13 17 21 19 16 24 19 21 20 16 14 15 15 17 21 21 24 23 21 21 24 22 20 12 4 10 10 14 17 15 16 16 16 15 14 11
10 2 1 10 20 12 12 11 15 13 14 21 19 19 21 19 16 14 23 20 20 20 16 15 15 15 17 19 23 24 24 22 22 23 20 17 15 11 11 12 15 16 15 16 15 15 13 11 9
8 4 15 9 18 13 9 16 15 17 17 20 19 19 18 15 12 15 13 21 19 20 17 15 16 15 16 19 21 23 25 25 25 22 20 18 14 11 11 15 15 15 15 14 13 12 10 8 6
3 8 13 8 20 16 10 15 13 15 16 19 19 19 16 16 12 14 19 13 17 22 18 15 15 15 16 16 17 19 21 20 24 24 19 16 12 10 9 11 12 13 13 12 11 9 7 4 3
5 6 12 19 18 14 11 14 17 12 14 18 19 13 15 14 12 13 12 17 15 17 16 18 15 15 13 13 16 16 17 17 18 19 19 17 14 10 8 9 11 10 11 9 8 6 4 3 3
7 4 13 21 16 16 14 14 14 11 11 10 14 18 19 16 14 12 14 13 9 15 14 16 15 13 12 10 12 14 15 15 16 14 13 14 5 7 7 7 9 9 10 8 6 5 5 5 8
4 6 17 19 15 13 19 12 14 14 16 17 20 19 17 16 14 13 14 12 11 19 17 15 17 16 13 10 9 11 8 6 9 12 10 5 6 6 9 9 9 10 9 8 8 8 9 9 7
5 14 16 18 18 13 16 14 9 19 16 15 18 17 16 14 14 13 14 14 14 10 12 9 8 16 11 10 7 6 10 6 6 10 12 8 5 5 6 4 5 4 8 5 7 7 6 8 4
4 15 13 13 12 15 11 9 12 17 18 18 17 17 15 13 12 10 14 10 14 10 12 14 9 10 4 7 6 7 6 7 6 4 5 4 3 6 4 5 6 5 4 4 7 5 3 2 6
12 12 13 11 17 11 11 12 12 16 17 17 16 15 15 12 12 11 15 15 13 13 11 11 9 7 5 5 3 4 3 4 9 6 4 4 3 3 1 6 5 4 3 3 4 3 5 5 6
4 11 11 14 12 7 13 10 13 14 16 17 15 14 14 11 13 13 11 14 16 13 9 13 10 4 8 4 3 1 2 5 5 4 4 3 2 5 3 2 2 2 1 1 3 4 2 1 5
10 11 11 12 12 11 16 8 13 13 16 15 14 12 14 12 12 10 11 11 12 16 14 11 11 9 6 5 2 3 3 6 5 4 7 3 5 4 3 2 3 3 4 5 4 4 2 3 4
17 19 12 12 23 10 12 8 13 13 15 13 13 12 10 13 13 9 10 10 14 12 12 13 11 11 10 9 5 1 3 3 3 3 5 6 7 4 2 2 4 3 1 3 3 2 2 4 4
8 14 17 12 23 14 9 9 14 15 13 12 11 12 12 10 11 10 7 12 15 11 8 8 12 12 9 6 4 3 1 2 1 3 5 7 8 6 5 4 4 1 5 3 4 2 3 4 5
13 6 17 16 13 22 22 15 14 15 15 13 13 11 12 11 12 9 12 12 11 13 9 8 5 9 11 7 4 3 3 3 4 4 3 5 4 5 4 5 2 4 4 7 6 4 3 4 2
12 25 10 13 11 11 11 16 16 13 14 14 13 13 10 14 11 13 12 13 11 12 12 10 7 8 7 4 4 6 6 5 5 5 7 6 8 5 6 4 2 6 4 5 2 1 4 3 3
18 14 6 12 14 8 7 19 17 15 13 15 12 14 11 13 16 15 13 14 14 12 13 10 9 9 6 5 4 3 4 3 5 7 7 4 4 4 5 2 5 1 3 3 3 2 2 2 4
9 16 4 14 8 13 11 11 14 15 13 14 12 15 15 12 12 15 15 14 15 14 13 12 8 12 8 4 1 3 4 2 2 5 4 5 5 3 4 5 4 3 2 4 3 3 4 2 3
7 5 6 1 14 12 13 10 11 13 12 11 13 12 16 16 16 13 17 14 15 16 14 14 12 10 8 6 5 6 4 3 1 4 3 6 7 6 4 3 5 3 2 4 3 3 2 3 4
1 3 19 18 18 4 12 10 10 12 11 13 10 13 13 16 19 17 15 16 13 15 16 15 14 10 8 8 6 5 5 2 3 4 5 1 5 5 5 5 5 4 3 0 1 4 3 2 3
10 18 37 20 10 5 11 10 12 13 13 12 13 10 12 10 14 17 15 13 12 12 14 15 15 12 11 9 8 7 5 4 1 1 2 3 4 6 6 4 2 0 2 3 2 4 4 5 3
16 17 5 7 4 12 25 11 10 14 15 13 15 10 8 5 8 11 11 13 10 10 11 14 15 13 12 9 9 8 6 5 5 4 3 5 2 2 7 5 5 4 3 2 3 4 4 4 4
8 12 6 6 7 17 11 12 13 14 13 15 12 10 7 11 8 11 8 12 11 12 11 12 17 14 14 12 10 9 8 5 5 5 5 3 2 3 3 6 3 4 1 1 1 2 5 5 1
10 7 30 21 24 7 15 21 15 14 14 10 15 12 10 12 10 12 9 10 11 11 11 10 15 14 14 15 10 9 9 9 8 6 6 5 5 4 2 5 6 3 3 2 2 3 5 1 2
8 5 8 6 7 3 15 13 11 13 12 13 9 13 16 12 11 9 10 11 12 11 12 11 13 14 14 13 13 11 10 10 10 7 8 6 7 7 2 6 5 5 4 3 3 5 4 2 4
7 11 3 5 5 7 13 11 10 12 13 11 11 12 15 12 10 8 9 9 10 10 13 11 11 12 11 12 11 13 12 12 11 9 9 8 6 7 6 6 6 5 5 4 3 3 3 3 3
12 13 16 2 4 7 14 11 14 10 8 12 10 10 11 11 11 9 8 8 9 8 10 11 9 11 11 10 9 10 11 11 13 12 10 9 8 7 5 5 5 5 5 4 5 5 5 5 5
Wind_Direction
171 223 250 277 316 115 49 50 46 11 65 62 62 62 64 49 68 111 145 120 105 105 96 90 98 80 61 51 41 106 132 145 139 137 130 125 124 120 118 105 97 100 114 104 109 111 107 109 109
169 154 294 269 56 51 79 104 145 134 52 92 83 82 78 81 91 126 139 133 132 109 96 92 94 80 63 52 48 92 127 133 135 135 126 122 128 119 106 94 89 89 106 108 114 111 111 106 105
247 204 253 267 45 106 77 84 84 64 125 85 70 78 81 87 91 99 123 137 102 93 94 97 103 85 75 63 60 77 101 116 125 124 125 115 115 115 101 78 97 97 102 109 102 104 106 107 101
229 192 255 97 94 63 51 88 92 94 99 99 105 77 79 89 111 116 93 92 99 96 99 97 102 91 84 70 74 83 84 99 116 123 116 121 113 91 98 78 97 106 112 113 109 111 104 102 101
326 2 254 77 83 59 53 79 88 95 99 89 95 97 87 96 107 125 117 116 112 109 110 101 98 93 92 87 83 85 91 96 110 107 107 117 107 111 88 94 98 109 117 104 105 105 106 90 97
310 35 68 331 93 98 38 84 75 75 86 100 105 106 105 122 131 112 108 104 108 111 110 108 107 105 104 103 100 95 94 100 102 112 115 118 102 94 88 97 100 112 108 108 105 102 98 104 111
282 342 131 173 89 80 83 93 109 113 110 100 115 118 133 123 131 118 105 110 133 119 119 122 119 110 107 111 110 110 109 107 108 108 108 110 116 104 107 99 103 110 111 110 108 110 119 119 101
97 167 129 71 90 90 97 94 100 97 94 116 124 133 127 126 136 120 129 117 93 120 131 123 145 130 128 118 125 124 120 122 118 121 119 99 108 117 124 115 117 117 117 118 119 136 149 177 211
111 258 56 79 88 121 125 85 93 134 80 90 127 132 124 145 130 144 106 91 105 114 126 138 120 113 115 128 131 130 128 134 132 130 128 135 163 144 139 136 141 135 131 134 150 189 218 230 248
260 66 61 77 97 86 90 114 128 114 96 94 98 113 137 140 167 134 129 142 152 146 144 144 144 136 157 130 161 123 86 166 155 136 147 218 177 166 154 153 156 151 148 168 185 220 234 236 244
268 70 65 66 82 108 119 146 142 122 118 124 127 134 142 159 152 155 151 151 147 136 128 126 109 145 164 149 158 149 168 184 189 154 174 188 151 143 165 150 167 180 174 195 196 225 237 235 202
150 89 92 104 108 80 96 133 62 98 111 125 134 139 146 176 149 144 131 142 132 132 142 128 150 105 129 160 156 186 167 171 148 101 100 94 179 185 210 152 198 210 172 191 208 216 205 30 298
86 101 100 108 92 115 102 83 99 110 118 129 133 142 159 162 140 140 144 135 143 147 136 142 129 88 92 70 38 132 128 108 115 130 212 148 238 244 234 155 201 169 175 213 262 251 229 177 238
114 108 120 103 97 98 97 125 115 121 134 130 145 155 156 155 130 122 129 145 136 145 124 121 124 138 120 118 131 106 188 118 114 145 125 146 279 265 149 111 253 181 140 88 268 269 218 211 239
141 131 134 117 113 50 15 145 116 144 136 143 156 171 128 147 119 146 137 137 132 133 127 138 144 166 132 132 123 210 234 90 135 163 130 187 247 281 85 295 245 242 180 184 252 296 321 301 313
36 340 134 130 98 82 72 110 133 145 146 160 159 131 146 118 146 144 148 147 109 112 122 155 155 159 168 146 206 316 109 140 168 154 146 190 239 211 258 247 258 270 272 209 230 217 272 246 256
231 222 132 135 131 145 134 202 150 154 156 166 157 145 147 162 138 162 169 122 118 124 148 141 148 163 146 160 161 152 209 145 151 201 181 200 221 189 225 233 249 181 271 300 267 237 205 232 241
234 183 124 143 150 164 185 138 156 163 159 167 162 164 160 166 170 181 156 137 138 139 146 132 169 142 142 170 157 165 202 216 179 219 228 189 242 190 189 241 136 246 130 251 270 268 251 271 296
0 7 81 115 148 189 168 146 162 171 166 162 174 164 186 165 181 171 179 158 158 150 154 154 158 134 157 171 165 180 200 199 209 207 217 216 221 207 219 255 301 256 221 234 274 331 272 314 343
109 218 236 105 146 203 180 145 159 173 190 157 197 162 194 187 171 176 195 178 172 167 159 165 162 155 196 193 164 74 239 207 211 193 201 185 215 202 204 248 246 141 4 10 296 308 286 261 237
204 232 116 134 168 165 126 125 146 169 189 169 194 168 179 189 192 175 192 192 174 166 167 165 177 162 202 202 148 107 190 226 129 129 168 186 239 242 216 181 263 353 333 294 232 260 230 246 288
237 269 226 168 182 167 183 124 130 162 191 194 193 199 184 190 181 195 186 199 189 169 173 161 170 167 192 224 188 166 201 200 253 179 173 167 181 227 247 200 205 239 253 275 265 258 349 295 281
267 294 9 57 295 245 172 128 145 161 182 180 208 213 212 185 185 187 201 180 200 171 168 160 166 176 207 197 236 168 240 178 205 137 127 123 163 191 239 208 228 171 236 272 210 263 242 269 259
18 30 72 313 344 187 91 43 165 176 165 162 170 217 212 195 191 181 180 164 179 166 163 161 163 175 201 190 211 236 202 217 165 310 139 251 218 194 214 224 144 234 226 269 308 22 331 290 308
83 60 43 211 247 123 133 185 94 130 138 146 147 172 166 158 159 149 162 156 159 149 158 151 161 176 184 204 203 221 230 207 242 210 237 243 193 251 179 158 200 212 210 54 351 342 281 282 274
79 97 168 253 219 110 120 127 118 105 106 125 145 137 153 177 159 135 149 148 155 152 159 164 163 174 182 196 209 200 215 217 221 225 241 308 310 156 216 182 162 147 93 336 267 237 245 283 247
128 70 230 225 260 175 102 105 112 124 137 158 125 145 120 77 91 120 142 151 150 156 162 172 162 172 189 194 208 207 201 219 228 240 187 215 220 264 241 143 147 188 167 167 306 267 276 224 265
304 262 294 206 93 172 121 134 125 156 152 129 157 129 125 133 130 140 152 159 155 173 162 175 164 178 191 206 196 209 210 209 230 232 218 213 215 205 225 150 182 169 165 192 192 269 200 153 296
181 226 206 212 15 278 139 108 112 135 146 162 152 140 126 131 125 150 148 148 156 167 165 173 172 181 196 205 200 202 202 213 211 231 240 209 204 192 199 163 179 171 163 184 209 284 273 184 249
258 301 207 151 326 292 102 116 131 144 102 96 97 92 93 121 129 128 121 144 146 164 176 173 187 193 199 200 213 199 206 209 212 203 218 215 221 179 180 187 188 182 176 192 195 220 262 186 226